Regional Weather Roundup
Issued by NWS

Home | Current Version | Previous Version | Text Only | Print | Product List | Glossary On
Versions: 1 2 3 4 5 6 7 8 9 10 11 12 13 14 15 16 17 18 19 20 21 22 23 24 25 26 27 28 29 30 31 32 33 34 35 36 37 38 39 40 41 42 43 44 45 46 47 48 49 50
000
ASUS43 KMKX 292300
RWRWI

WISCONSIN REGIONAL WEATHER ROUNDUP
NATIONAL WEATHER SERVICE MILWAUKEE/SULLIVAN WI
600 PM CDT WED JUL 29 2015

NOTE: "FAIR" INDICATES FEW OR NO CLOUDS BELOW 12,000 FEET WITH NO
SIGNIFICANT WEATHER AND/OR OBSTRUCTIONS TO VISIBILITY.

WIZ001-002-006>008-014>016-023>028-300000-
NORTHWEST WISCONSIN

CITY           SKY/WX    TMP DP  RH WIND       PRES   REMARKS
SUPERIOR ARPT  PTSUNNY   79  56  45 W21G28    29.79S
ASHLAND        CLOUDY    76  56  49 W13G25    29.80R
HAYWARD        MOSUNNY   78  54  43 W12G24    29.86R
SIREN          PTSUNNY   79  52  39 W17G28    29.88R
CUMBERLAND     SUNNY     77  50  38 W17G32    29.90S
RICE LAKE      MOSUNNY   77  51  40 W18G32    29.91S
CHETEK         MOSUNNY  N/A N/A N/A W7G21     29.90S
LADYSMITH      MOSUNNY   79  54  41 W15G23    29.91R
EAU CLAIRE     NOT AVBL
MENOMONIE      MOSUNNY   81  52  36 W23G31    29.92R HX  80
NEW RICHMOND   MOSUNNY   80  53  39 W12G28    29.93R HX  80
OSCEOLA        MOSUNNY   80  53  39 W23G30    29.94S HX  80
$$

WIZ003>005-009-010-017-018-300000-
NORTH CENTRAL WISCONSIN

CITY           SKY/WX    TMP DP  RH WIND       PRES   REMARKS
MANITOWISH WTR CLOUDY    74  56  52 W17G23    29.85S
ARBOR VITAE    CLOUDY    75  55  51 W12G21    29.86S
WOODRUFF       CLOUDY    75  55  51 W12G21    29.86S
RHINELANDER    PTSUNNY   77  54  44 W16G26    29.88S
EAGLE RIVER    CLOUDY    74  51  44 W10G28    29.85S
LAND O LAKES   CLOUDY    74  53  47 W14G21    29.86S
PHILLIPS       MOSUNNY   77  54  45 W8G23     29.87S
TOMAHAWK       MOSUNNY   75  53  45 W9G18     29.89S
MEDFORD        MOSUNNY   76  53  44 W21G35    29.91R
MERRILL        NOT AVBL
$$

WIZ029-030-035-036-043>047-300000-
CENTRAL WISCONSIN

CITY           SKY/WX    TMP DP  RH WIND       PRES   REMARKS
WAUSAU         MOSUNNY   80  52  37 W20G32    29.88R HX  80
MOSINEE        MOSUNNY   79  52  38 W22G31    29.91S
MARSHFIELD     SUNNY     79  51  37 W20G32    29.91S
STEVENS POINT  SUNNY     78  52  39 W20G33    29.91R
WAUPACA        MOSUNNY   84  49  29 W13G22    29.89R HX  82
WAUTOMA        NOT AVBL
WISC RAPIDS    MOSUNNY   82  50  32 NW18G29   29.93R HX  81
CAMP DOUGLAS   NOT AVBL
$$

WIZ011>013-019>022-031-037>040-048>050-300000-
NORTHEAST WISCONSIN

CITY           SKY/WX    TMP DP  RH WIND       PRES   REMARKS
ANTIGO         CLOUDY    77  55  45 W18G29    29.88S
SHAWANO        CLOUDY    82  51  34 W14G26    29.86R HX  81
OCONTO         MOSUNNY   83  54  36 W14G26    29.82R HX  82
STURGEON BAY   MOSUNNY   82  54  36 W12G21    29.85R HX  81
GREEN BAY      SUNNY     83  54  36 W22G29    29.86R HX  82
MANITOWOC      NOT AVBL
APPLETON       MOSUNNY   81  46  30 W23       29.89R HX  80
CLINTONVILLE   PTSUNNY   82  48  30 W22G28    29.86S HX  81
OSHKOSH        SUNNY     83  52  34 W15G25    29.88R HX  82
$$

WIZ032>034-041-042-053>061-300000-
SOUTHWEST WISCONSIN

CITY           SKY/WX    TMP DP  RH WIND       PRES   REMARKS
LA CROSSE      SUNNY     83  52  34 W23G36    29.95S HX  82
SPARTA         SUNNY     82  49  31 W14G24    29.95S HX  80
VIROQUA        SUNNY     79  52  38 W14G22    30.00R
BOSCOBEL       SUNNY     85  53  33 W8G18     29.98S HX  83
PRAIRIE DU CHI SUNNY     84  47  28 W14G23    29.99S HX  82
PLATTEVILLE    SUNNY     81  55  39 W16G22    30.00F HX  81
$$

WIZ056-057-062-063-064-067-068-300000-
SOUTH CENTRAL WISCONSIN

CITY           SKY/WX    TMP DP  RH WIND       PRES   REMARKS
REEDSBURG      SUNNY     83  51  33 W20G29    29.94S HX  81
BARABOO/DELLS  SUNNY     84  47  27 W14G22    29.94S HX  81
LONE ROCK      NOT AVBL
MINERAL POINT  SUNNY     81  46  30 W20G26    30.00S HX  80
MADISON        MOSUNNY   82  51  34 W13G23    29.94S HX  81
MIDDLETON      SUNNY     84  45  25 W18G26    29.96S HX  81
WATERTOWN      SUNNY     82  55  39 W14       29.93S HX  81
MONROE         SUNNY     81  52  36 W16G24    29.99S HX  80
JANESVILLE     MOSUNNY   84  48  28 W16G24    29.96S HX  82
$$

WIZ051-052-058>065-066-070>072-300000-
SOUTHEAST WISCONSIN

CITY           SKY/WX    TMP DP  RH WIND       PRES   REMARKS
MILWAUKEE      MOSUNNY   84  49  29 W18G26    29.92R HX  82
WAUKESHA       SUNNY     81  50  34 W16G25    29.95S HX  80
MILWAUKEE/TIMM NOT AVBL
RACINE         SUNNY     84  50  30 W14G28    29.95R HX  82
BURLINGTON     SUNNY     81  49  32 W10G21    29.96R HX  80
KENOSHA        SUNNY     82  54  37 W17G23    29.95R HX  81
FOND DU LAC    SUNNY     83  51  33 W17G26    29.90R HX  81
SHEBOYGAN      SUNNY     83  51  33 W17G28    29.88S HX  81
WEST BEND      SUNNY     82  46  28 W13G23    29.91S HX  81
JUNEAU         SUNNY     80  54  39 W16G22    29.93S HX  80
$$

LSZ147-162-300000-
LAKE SUPERIOR

STATION/POSITION TIME  TEMP    WIND        PRES    WAVE
                       AIR SEA DIR/SP/G            HT/PER
                 (UTC) (F)     (DEG/KT/KT) (MB)    (FT/S)
W MID LAKE BUOY  2150   63 55  230/ 17/ 19 1006.6R   5/ 6
DEVILS ISLAND    2200   69     250/ 22/ 25 1007.4R
PORT WING        2200   75     240/ 10/ 14 1008.5F
SAXON HARBOR     2200   76                 1008.8
$$

LMZ867-665-643>646-300000-
LAKE MICHIGAN

STATION/POSITION TIME  TEMP    WIND        PRES    WAVE
                       AIR SEA DIR/SP/G            HT/PER
                 (UTC) (F)     (DEG/KT/KT) (MB)    (FT/S)
CHAMBERS ISLAND  2200   79     230/  6/ 15 1008.5S
S GREEN BAY BUOY 2230   72 67  250/ 14/ 17 1011.4R
N MID LAKE BUOY  2150   75 70  220/ 16/ 17 1008.0S   3/ 5
NORTHPORT PIER   2200   85     240/  3/ 11 1008.5S
SISTER BAY       2229   80     280/ 12/ 13   N/A
ALGOMA LAKESHORE 2212          270/ 15/ 25   N/A
KEWAUNEE LAKESHO 2200   84                   N/A
SHEBOYGAN LAKESH 2200   83     260/ 20/ 25 1011.3F
PORT WASHINGTON  2200   87     260/ 11/ 20 1012.5S
ATWATER BUOY     2200   79     250/ 21/ 25 1014.0F
MILWAUKEE LAKESH 2200   83     290/ 17/ 23   N/A
KENOSHA   LAKESH 2200   84     270/ 17/ 23 1013.2F
$$

TC  - TEMPERATURE IN CELSIUS
VSB - VISIBILITY IN STATUTE MILES
WCI - WIND CHILL INDEX
HX  - HEAT INDEX



USA.gov is the U.S. government's official web portal to all federal, state and local government web resources and services.